• Join FlightAware (Why Join?)
  • Login
  • US Flag 
05:33PM EDT


 

Airport Tracker/Info


-or-


 

Live Flight TrackerFlight Track Log ✈ DAL6034 ✈ 26-Apr-2013 ✈ KLGA - KMHT

Flight Track Log - Related Links

Times and Time Zones

All times are in EDT time to prevent confusion due to time zone crossing. See the DAL6034 flight status page for this flight to view local times or setup timezone preferences in your user account.

Time Position Orientation Groundspeed Altitude Reporting Facility
EDT Latitude Longitude Course Direction KTS MPH feet Rate Location/Type
04:06PM 40.8000 -73.8500 27° Northeast 164 189 1,400  Level New York TRACON
04:07PM 40.8500 -73.8167 27° Northeast 227 261 3,500 2,400 Climbing New York TRACON
04:08PM 40.9167 -73.7667 30° Northeast 247 284 6,500 2,580 Climbing New York TRACON
04:09PM 41.1159 -73.5958 28° Northeast  Level FlightAware Approximate
04:09PM 40.9667 -73.7167 37° Northeast 253 291 8,800  Level New York TRACON
04:10PM 41.2016 -73.5236 33° Northeast  Level FlightAware Approximate
04:11PM 41.2879 -73.4526 27° Northeast  Level FlightAware Approximate
04:11PM 41.0811 -73.6353 28° Northeast 304 350 11,800  Level Boston Center
04:12PM 41.1567 -73.5731 32° Northeast 305 351 13,500 1,500 Climbing Boston Center
04:13PM 41.2386 -73.5111 30° Northeast 322 371 14,900 1,500 Climbing Boston Center
04:14PM 41.3228 -73.4406 32° Northeast 341 392 16,500 1,500 Climbing Boston Center
04:15PM 41.4086 -73.3728 31° Northeast 353 406 17,900 900 Climbing Boston Center
04:16PM 41.5072 -73.2856 34° Northeast 371 427 18,500 1,080 Climbing Boston Center
04:17PM 41.5811 -73.1811 47° Northeast 377 434 20,400 1,200 Climbing Boston Center
04:18PM 41.6753 -73.1211 25° Northeast 382 440 21,000 300 Climbing Boston Center
04:19PM 41.7792 -73.1333 355° North 349 402 21,000  Level Boston Center
04:20PM 41.8833 -73.1511 353° North 355 409 21,000  Level Boston Center
04:21PM 41.9894 -73.1692 353° North 368 423 21,000  Level Boston Center
04:22PM 42.0917 -73.1897 352° North 373 429 21,000  Level Boston Center
04:23PM 42.1997 -73.2081 353° North 378 435 21,000  Level Boston Center
04:24PM 42.3039 -73.2261 353° North 378 435 21,000  Level Boston Center
04:25PM 42.4183 -73.2389 355° North 378 435 21,000 -360 Level Boston Center
04:26PM 42.5186 -73.2147 10° North 373 429 20,300 -900 Descending Boston Center
04:27PM 42.5736 -73.0717 62° Northeast 343 395 19,200 -660 Descending Boston Center
04:28PM 42.6139 -72.9308 69° East 361 415 19,000 -600 Descending Boston Center
04:29PM 42.6542 -72.7872 69° East 381 438 18,100 -1,020 Descending Boston Center
04:30PM 42.6942 -72.6464 69° East 394 453 17,000 -1,200 Descending Boston Center
04:31PM 42.7256 -72.5389 68° East 394 453 15,800 -1,380 Descending Boston Center
04:32PM 42.7672 -72.3947 68° East 377 434 14,300 -1,620 Descending Boston Center
04:33PM 42.7961 -72.2533 74° East 365 420 12,600 -1,860 Descending Boston Center
04:34PM 42.8064 -72.1203 84° East 354 407 10,600 -1,320 Descending Boston Center
04:35PM 42.8164 -72.0014 83° East 333 383 10,000 -1,080 Descending Boston Center
04:36PM 42.8264 -71.8881 83° East 298 343 8,500 -1,620 Descending Boston Center
04:37PM 42.8739 -71.8139 49° Northeast 255 293 6,800 -1,860 Descending Boston Center
04:38PM 42.9256 -71.7453 44° Northeast 250 288 4,800 -1,500 Descending Boston Center
04:39PM 42.9711 -71.6797 46° Northeast 244 281 3,900 -900 Descending Boston Center
04:40PM 42.9975 -71.6056 64° Northeast 223 257 3,000 -840 Descending Boston Center
04:41PM 43.0094 -71.5344 77° East 196 226 2,300 -720 Descending Boston Center